CZ-6A DEB

Satellite information

Favourite Embed

Satellite Type and Status

DEBRISIN ORBIT

Key statistics

Satellite CZ-6A DEB at a glance.

Uptime

494

Days in orbit

Revolutions

≈ 14.3

Per day

Orbit

LEO

Low Earth Orbit

Inclination

88.9

Latest

Satellite identification and parameters

Extended collection of information and parameters for CZ-6A DEB.

Object identification

Identified? True

Debris? True

Object name: CZ-6A DEB

International designator: 2024-140LF

Object number (NORAD): 60900

Object ID (CCSDS): 60900

Country: PEOPLES REPUBLIC OF CHINA (PRC)

Current information (Y/N): Y

RCS size: SMALL

Orbital parameters

Period: 100.979 minutes

Inclination: 88.9163 deg

SMA: 7183.122 km

Apoapsis: 817.816 km

Periapsis: 792.157 km

RAAN: 290.3852 deg

Eccentricy: 0.0017861

Argument of periapsis: 27.192 deg

Mean anomaly: 333.0204 deg

Mean motion: 14.26043997 rev/day

Mean motion (dot): 0.00000573 rev/day2

B* drag term: 0.00023341 1/REarth

Two-line elements (TLE)

Creation date: Dec. 12, 2025, 7:26 a.m.

Reference frame: TEME

Reference center: EARTH

Epoch: Dec. 11, 2025, 8:26 p.m. UTC

TLE line 0: 0 CZ-6A DEB

TLE line 1: 1 60900U 24140LF 25345.85145250 .00000573 00000-0 23341-3 0 9996

TLE line 2: 2 60900 88.9163 290.3852 0017861 27.1920 333.0204 14.26043997 68458

Live tracking on map

Real-time ground track for satellite CZ-6A DEB.

In-orbit conjunctions

A list of the most updated potential collisions computed for object CZ-6A DEB.

Target Orbit TCA Probability of collision Miss distance Type
QUAKESAT SSO 2025-11-10 22:55:31 0.0003696493 552.0 (m) PAYLOAD
EXPLORER 30 LEO 2025-03-05 16:28:42 0.0001187559 712.0 (m) PAYLOAD
CZ-6A DEB LEO 2025-03-02 06:37:55 0.0002278458 414.0 (m) DEBRIS
NOAA 16 DEB SSO 2025-02-20 18:05:43 0.0003806824 287.0 (m) DEBRIS
NOAA 16 DEB SSO 2024-11-15 05:50:31 0.0001252008 379.0 (m) DEBRIS

Associated space launch

18 Low Earth Orbit communication satellites with Ku, Q and V band payloads for the G60 constellation operated by Shanghai Spacecom Satellite Technology (SSST) with funding backed by the Shanghai local government. Initial constellation will consist of 1296 satellites by 2027 with long term plans to expand it to 12000 satellites.

CZ-6A DEB was lifted into orbit during the mission ‘Long March 6A | G60 Polar Group 01’, on board a Long March 6A space rocket.

The launch took place on Aug. 6, 2024, 6:42 a.m. from Launch Complex 9A.

For more information about the launch, click the button.

Launch to space Long March 6A | G60 Polar Group 01
Long March 6A | G60 Polar Group 01

Agency: N/A

Status: Launch Successful

Launch date: Aug. 6, 2024, 6:42 a.m. UTC

Rocket: Long March 6A

Launch pad: Launch Complex 9A

Location: Taiyuan Satellite Launch Center, People's Republic of China

...

Latest news about this satellite

News about space launch
Brightness of first Chinese broadband constellation satellites alarms astronomers

The first satellites of a Chinese broadband constellation are significantly brighter than those of Western systems, posing a new challenge for astronomers.

News about space launch
Chinese rocket stage breaks up into cloud of more than 700 pieces of space debris

HELSINKI — A Chinese Long March 6A rocket’s upper stage has fragmented into a cloud of over 700 pieces of space debris, adding to concerns about long-term orbital safety. China […]

News about space launch
China's Thousand Sails Megaconstellation Kicks Off with Dangerous Debris Field

China's Thousand Sails Megaconstellation Kicks Off with Dangerous Debris Field


Newsletter sign-up

Weekly statistics, charts and insights to help you stay on top of the space industry.